Location: Rostock
(54.0884°N, 12.1234°E)
Time: 21:38:11
(UTC+01:00)

Tiangong 2 - Visible Passes

Search period start: 24 November 2017 00:00
Search period end: 04 December 2017 00:00
Orbit: 386 x 392 km, 42.8° (Epoch: 24 November)

Date Brightness Start Highest point End Pass type
(mag) Time Alt. Az. Time Alt. Az. Time Alt. Az.
30 Nov 4.1 07:09:44 10° SSW 07:10:52 11° S 07:11:58 10° SSE visible
01 Dec 4.1 06:12:09 10° S 06:12:52 11° S 06:13:35 10° SSE visible
02 Dec 3.9 06:49:42 10° SSW 06:50:47 11° S 06:51:51 10° SSE visible
03 Dec 3.8 05:51:50 10° SSW 05:52:46 11° S 05:53:52 10° SSE visible
